CW1490 Weather Reports


time (UTC)temp
F
wind
direction
speed
knots
gust
knots
rain 1hr
in
rain 24hr
in
rain mn
in
humidity
%
barometer
mb
20260902070009 63 178 0.0 1.7 0.00 0.38 0.00 94 1021.4
20260902065503 63 93 0.0 1.7 0.00 0.38 0.00 94 1021.5
20260902065014 63 67 0.0 1.7 0.00 0.38 0.00 94 1021.6
20260902064508 63 80 0.0 1.7 0.00 0.38 0.00 94 1021.6
20260902064002 63 51 0.0 1.7 0.00 0.38 0.00 94 1021.6
20260902063516 63 41 0.9 1.7 0.00 0.38 0.00 94 1021.5
20260902063008 63 51 0.0 1.7 0.00 0.38 0.00 94 1021.5
20260902062505 63 51 0.0 1.7 0.00 0.38 0.00 94 1021.5
20260902062006 63 265 0.0 1.7 0.00 0.38 0.00 94 1021.4
20260902061527 63 205 0.0 0.9 0.00 0.38 0.00 94 1021.4
20260902061010 63 9 0.0 0.9 0.00 0.38 0.00 94 1021.4
20260902060508 63 221 0.0 1.7 0.00 0.38 0.00 94 1021.4
20260902060018 63 238 0.0 1.7 0.00 0.38 0.00 94 1021.4
20260902055513 63 41 0.0 1.7 0.00 0.38 0.00 94 1021.3
20260902055013 63 44 0.9 1.7 0.00 0.38 0.00 94 1021.2
20260902054504 63 80 0.0 1.7 0.00 0.38 0.00 94 1021.2
20260902054003 63 93 0.0 1.7 0.00 0.38 0.00 94 1021.2
20260902053502 63 9 0.0 1.7 0.00 0.38 0.00 94 1021.1
20260902053005 63 93 0.0 1.7 0.00 0.38 0.00 94 1021.1
20260902052517 63 291 0.0 2.6 0.00 0.38 0.00 94 1021.1
20260902052003 63 238 0.9 3.5 0.00 0.38 0.00 94 1021.0
20260902051509 63 265 0.9 3.5 0.00 0.38 0.00 94 1021.0
20260902051007 63 209 1.7 2.6 0.00 0.38 0.00 94 1020.9
20260902050507 63 214 0.9 1.7 0.00 0.38 0.00 94 1020.7
20260902050016 63 221 0.9 1.7 0.00 0.38 0.00 94 1020.7
20260902045508 63 205 0.0 1.7 0.00 0.38 0.00 94 1020.7
20260902045011 63 212 0.9 1.7 0.00 0.38 0.00 94 1020.7
20260902044527 63 178 0.9 1.7 0.00 0.38 0.00 94 1020.6
20260902044013 63 212 0.0 1.7 0.00 0.38 0.00 94 1020.7
20260902043511 63 215 0.9 1.7 0.00 0.38 0.00 94 1020.6
20260902043042 63 165 0.0 1.7 0.00 0.38 0.00 94 1020.4
20260902042505 63 9 0.0 1.7 0.00 0.38 0.00 94 1020.5
20260902042002 63 9 0.0 2.6 0.00 0.38 0.00 94 1020.5
20260902041508 63 334 0.0 2.6 0.00 0.38 0.00 94 1020.5
20260902041003 63 9 0.9 2.6 0.00 0.38 0.00 93 1020.3
20260902040509 63 9 0.9 2.6 0.00 0.38 0.00 93 1020.2
20260902040014 63 9 0.9 1.7 0.00 0.38 0.00 93 1020.1
20260902035513 63 9 0.0 1.7 0.00 0.38 0.38 93 1020.0
20260902035008 63 9 0.9 1.7 0.00 0.38 0.38 93 1020.0
20260902034520 63 9 0.9 1.7 0.00 0.38 0.38 93 1019.9
20260902034012 63 9 0.0 2.6 0.00 0.38 0.38 93 1020.0
20260902033511 63 9 0.9 2.6 0.00 0.38 0.38 93 1020.0
20260902033027 63 41 0.9 2.6 0.00 0.38 0.38 93 1019.9
20260902032516 63 19 1.7 2.6 0.00 0.38 0.38 93 1019.9
20260902032021 63 265 0.0 1.7 0.00 0.38 0.38 93 1019.8
20260902031537 63 67 0.0 1.7 0.00 0.38 0.38 93 1019.9
20260902031006 63 34 0.9 2.6 0.00 0.38 0.38 93 1019.9
20260902030502 63 9 0.0 2.6 0.00 0.38 0.38 93 1020.0
20260902030008 63 265 0.0 2.6 0.00 0.38 0.38 93 1019.9
20260902025506 63 119 0.9 3.5 0.00 0.38 0.38 93 1019.9
20260902025010 63 247 1.7 3.5 0.00 0.38 0.38 93 1019.9
20260902024515 64 238 1.7 3.5 0.00 0.38 0.38 93 1019.9
20260902024007 64 221 0.0 2.6 0.00 0.38 0.38 93 1019.8
20260902023509 64 257 0.9 4.3 0.00 0.38 0.38 93 1019.9
20260902023032 64 325 0.9 6.1 0.00 0.38 0.38 93 1019.9
20260902022510 64 238 1.7 6.1 0.00 0.38 0.38 93 1019.8
20260902022015 64 212 3.5 6.1 0.00 0.38 0.38 93 1019.7
20260902021527 64 234 1.7 3.5 0.00 0.38 0.38 93 1019.9
20260902021013 64 153 0.0 2.6 0.00 0.38 0.38 93 1020.0
20260902020514 64 250 1.7 2.6 0.00 0.38 0.38 93 1020.0
20260902020032 64 250 0.9 2.6 0.00 0.38 0.38 93 1019.9
20260902015516 64 325 0.9 2.6 0.00 0.38 0.38 93 1020.0
20260902015006 64 309 0.0 1.7 0.00 0.38 0.38 93 1019.9
20260902014518 64 51 0.9 2.6 0.00 0.38 0.38 93 1019.8
20260902014008 64 178 0.0 2.6 0.00 0.38 0.38 93 1019.8
20260902013507 64 9 0.9 2.6 0.00 0.38 0.38 93 1019.9
20260902013020 64 51 0.9 2.6 0.00 0.38 0.38 93 1019.8
20260902012513 64 22 0.0 2.6 0.00 0.38 0.38 93 1019.8
20260902012013 64 34 0.0 2.6 0.00 0.38 0.38 93 1019.9
20260902011524 64 319 1.7 2.6 0.00 0.38 0.38 93 1019.8
20260902011013 64 51 0.0 3.5 0.00 0.38 0.38 93 1019.8
20260902010514 64 178 0.0 3.5 0.00 0.38 0.38 93 1019.7
20260902010028 64 298 0.0 2.6 0.00 0.38 0.38 93 1019.7
20260902005519 64 291 0.0 1.7 0.01 0.38 0.38 93 1019.7
20260902005016 64 9 0.0 3.5 0.01 0.38 0.38 93 1019.5
20260902004535 64 282 0.9 3.5 0.01 0.38 0.38 93 1019.4
20260902004018 64 319 0.9 2.6 0.01 0.38 0.38 93 1019.3
20260902003507 65 325 0.9 3.5 0.01 0.38 0.38 93 1019.2
20260902003013 65 178 0.0 3.5 0.01 0.38 0.38 93 1019.2
20260902002511 65 146 0.9 3.5 0.01 0.38 0.38 93 1019.1
20260902002009 65 309 0.9 3.5 0.01 0.38 0.38 93 1019.0
20260902001521 65 190 0.9 3.5 0.01 0.38 0.38 93 1018.9
20260902001013 65 158 1.7 3.5 0.01 0.38 0.38 93 1018.8
20260902000511 65 221 0.9 3.5 0.02 0.38 0.38 93 1018.6
20260902000031 65 221 0.9 3.5 0.02 0.38 0.38 93 1018.8
20260901235512 65 247 1.7 3.5 0.01 0.37 0.37 93 1018.7
20260901235019 65 229 0.0 2.6 0.01 0.37 0.37 93 1018.5
20260901234531 65 291 0.0 4.3 0.01 0.37 0.37 93 1018.5
20260901234015 65 238 0.9 4.3 0.01 0.37 0.37 93 1018.4
20260901233519 66 146 1.7 4.3 0.01 0.37 0.37 93 1018.3
20260901233031 66 249 1.7 2.6 0.01 0.37 0.37 93 1018.5
20260901232517 66 247 1.7 4.3 0.01 0.37 0.37 93 1018.5
20260901232017 66 217 2.6 4.3 0.01 0.37 0.37 93 1018.5
20260901231519 66 232 1.7 6.1 0.01 0.37 0.37 93 1018.5
20260901231012 66 234 3.5 7.0 0.01 0.37 0.37 93 1018.5
20260901230510 66 247 3.5 7.0 0.00 0.36 0.36 93 1018.5
20260901230024 66 247 0.9 2.6 0.00 0.36 0.36 93 1018.4
20260901225512 66 26 0.0 2.6 0.00 0.36 0.36 93 1018.4
20260901225014 66 51 0.0 2.6 0.00 0.36 0.36 93 1018.4
20260901224530 66 9 0.0 2.6 0.00 0.36 0.36 93 1018.5
20260901224016 66 9 0.0 3.5 0.00 0.36 0.36 93 1018.5
20260901223513 66 38 0.9 3.5 0.00 0.36 0.36 93 1018.4
20260901223030 66 9 0.9 2.6 0.00 0.36 0.36 93 1018.5
20260901222517 66 34 0.9 3.5 0.00 0.36 0.36 93 1018.5
20260901222016 66 9 0.9 4.3 0.00 0.36 0.36 93 1018.5
20260901221601 66 17 2.6 3.5 0.00 0.36 0.36 93 1018.4
20260901221001 66 18 2.6 3.5 0.00 0.36 0.36 93 1018.3
20260901220502 66 24 1.7 3.5 0.00 0.36 0.36 93 1018.3
20260901220004 66 51 0.0 3.5 0.00 0.36 0.36 93 1018.2
20260901215502 66 93 0.0 6.1 0.00 0.36 0.36 93 1018.2
20260901215005 66 80 1.7 6.1 0.00 0.36 0.36 93 1018.2
20260901214503 66 22 0.9 4.3 0.00 0.36 0.36 93 1018.2
20260901214002 66 30 1.7 7.8 0.00 0.36 0.36 93 1018.2
20260901213503 66 34 2.6 7.8 0.00 0.36 0.36 93 1018.1
20260901213019 66 9 2.6 4.3 0.00 0.36 0.36 93 1018.1
20260901212511 67 26 1.7 4.3 0.00 0.36 0.36 93 1018.1
20260901212006 67 319 0.9 4.3 0.00 0.36 0.36 93 1018.1
20260901211516 67 26 1.7 4.3 0.00 0.36 0.36 93 1018.1
20260901211007 67 316 0.9 7.0 0.00 0.36 0.36 93 1018.1
20260901210507 67 32 1.7 7.0 0.00 0.36 0.36 93 1018.0
20260901210019 67 48 2.6 5.2 0.00 0.36 0.36 93 1017.9
20260901205502 67 19 0.9 4.3 0.00 0.36 0.36 93 1018.1
20260901205001 66 26 1.7 5.2 0.00 0.36 0.36 93 1018.0
20260901204512 66 67 1.7 5.2 0.00 0.36 0.36 93 1017.9
20260901204004 66 47 3.5 7.0 0.00 0.36 0.36 93 1017.9
20260901203503 66 47 3.5 7.0 0.00 0.36 0.36 93 1017.9
20260901203008 66 9 3.5 6.1 0.00 0.36 0.36 93 1017.9
20260901202502 66 31 3.5 7.0 0.00 0.36 0.36 93 1017.8
20260901202004 66 43 3.5 8.7 0.00 0.36 0.36 93 1017.8
20260901201510 66 18 3.5 8.7 0.00 0.36 0.36 93 1017.8
20260901201007 66 21 4.3 10.4 0.00 0.36 0.36 93 1017.8
20260901200509 66 19 4.3 10.4 0.00 0.36 0.36 93 1017.7
20260901200029 66 338 3.5 8.7 0.00 0.36 0.36 94 1017.7
20260901195507 66 342 3.5 8.7 0.00 0.36 0.36 94 1017.7
20260901195007 66 45 3.5 7.8 0.00 0.36 0.36 94 1017.7
20260901194525 66 36 3.5 7.8 0.00 0.36 0.36 94 1017.8
20260901194006 66 38 1.7 8.7 0.00 0.36 0.36 94 1017.7
20260901193503 66 346 3.5 10.4 0.00 0.36 0.36 94 1017.8
20260901193004 66 19 5.2 10.4 0.00 0.36 0.36 95 1017.7
20260901192503 66 18 4.3 9.6 0.00 0.36 0.36 95 1017.7
20260901192003 66 44 3.5 7.8 0.00 0.36 0.36 94 1017.8
20260901191518 66 63 4.3 9.6 0.00 0.36 0.36 94 1017.8
20260901191002 66 20 4.3 9.6 0.00 0.36 0.36 95 1017.8
20260901190513 66 17 6.1 11.3 0.00 0.36 0.36 94 1017.8
20260901190020 66 51 4.3 11.3 0.01 0.36 0.36 95 1017.8
20260901185508 66 45 6.1 11.3 0.01 0.36 0.36 95 1017.8
20260901185008 65 44 5.2 10.4 0.01 0.36 0.36 95 1017.8
20260901184518 65 9 5.2 10.4 0.01 0.36 0.36 95 1017.8
20260901184010 66 38 6.1 9.6 0.02 0.36 0.36 95 1017.8
20260901183510 65 32 4.3 9.6 0.02 0.36 0.36 95 1017.9
20260901183033 65 33 2.6 7.8 0.02 0.36 0.36 95 1017.9
20260901182512 65 346 4.3 7.8 0.02 0.36 0.36 95 1017.9
20260901182003 65 9 3.5 7.8 0.02 0.36 0.36 95 1017.9
20260901181505 65 64 1.7 7.8 0.03 0.36 0.36 95 1017.9
20260901181002 65 347 4.3 7.8 0.03 0.36 0.36 95 1017.9
20260901180502 65 43 3.5 8.7 0.03 0.36 0.36 95 1017.9
20260901180010 65 19 2.6 8.7 0.02 0.35 0.35 95 1017.8
20260901175513 65 34 5.2 8.7 0.02 0.35 0.35 95 1017.8
20260901175006 65 48 4.3 8.7 0.02 0.35 0.35 95 1017.8
20260901174529 64 51 4.3 8.7 0.02 0.35 0.35 95 1017.7
20260901174008 64 26 5.2 13.0 0.01 0.34 0.34 95 1017.7
20260901173509 64 34 4.3 13.0 0.02 0.34 0.34 95 1017.7
20260901173022 64 93 2.6 8.7 0.02 0.34 0.34 95 1017.7
20260901172516 64 25 4.3 9.6 0.02 0.34 0.34 94 1017.7
20260901172013 64 38 5.2 9.6 0.02 0.34 0.34 95 1017.6
20260901171527 64 63 6.1 9.6 0.01 0.33 0.33 94 1017.6
20260901171015 64 38 4.3 8.7 0.02 0.33 0.33 94 1017.6
20260901170504 64 36 3.5 5.2 0.03 0.33 0.33 95 1017.6
20260901170008 64 49 2.6 4.3 0.04 0.33 0.33 94 1017.6
20260901165503 64 51 2.6 3.5 0.05 0.33 0.33 94 1017.7
20260901165007 64 9 0.0 4.3 0.05 0.33 0.33 94 1017.6
20260901164514 64 282 0.9 5.2 0.05 0.33 0.33 94 1017.6
20260901164007 64 298 1.7 9.6 0.06 0.33 0.33 94 1017.6
20260901163509 64 338 1.7 10.4 0.06 0.32 0.32 94 1017.5
20260901163020 64 9 6.1 10.4 0.08 0.32 0.32 94 1017.4
20260901162510 64 33 4.3 13.9 0.10 0.32 0.32 94 1017.2
20260901162011 64 40 8.7 13.9 0.10 0.32 0.32 94 1017.2
20260901161536 64 28 7.0 11.3 0.10 0.32 0.32 94 1016.9
20260901161016 64 84 7.0 11.3 0.09 0.31 0.31 94 1016.8
20260901160512 64 54 5.2 8.7 0.08 0.30 0.30 94 1017.0
20260901160029 64 43 2.6 7.0 0.07 0.29 0.29 94 1017.4
20260901155516 64 22 3.5 7.8 0.06 0.28 0.28 94 1017.7
20260901155017 63 36 2.6 8.7 0.06 0.28 0.28 94 1017.8
20260901154511 64 29 4.3 8.7 0.06 0.28 0.28 94 1017.8
20260901154006 64 36 4.3 8.7 0.05 0.27 0.27 94 1017.8
20260901153509 64 9 4.3 10.4 0.04 0.26 0.26 93 1017.7
20260901153054 64 22 5.2 10.4 0.02 0.24 0.24 93 1017.7
20260901152517 63 25 5.2 10.4 0.00 0.22 0.22 93 1017.7
20260901152009 64 20 4.3 10.4 0.00 0.22 0.22 93 1017.7
20260901151538 63 21 5.2 10.4 0.00 0.22 0.22 93 1017.7
20260901151011 64 18 5.2 11.3 0.00 0.22 0.22 93 1017.6
20260901150512 64 43 7.0 11.3 0.00 0.22 0.22 93 1017.6
20260901150036 64 34 5.2 11.3 0.00 0.22 0.22 93 1017.6
20260901145512 64 44 7.0 11.3 0.00 0.22 0.22 93 1017.4
20260901145017 65 67 7.8 12.2 0.00 0.22 0.22 93 1017.3
20260901144540 65 24 7.0 12.2 0.00 0.22 0.22 94 1017.3
20260901144014 65 50 6.1 10.4 0.00 0.22 0.22 94 1017.2
20260901143516 65 41 1.7 9.6 0.00 0.22 0.22 94 1017.3
20260901143011 65 25 4.3 9.6 0.00 0.22 0.22 94 1017.2
20260901142506 65 18 4.3 9.6 0.00 0.22 0.22 94 1017.3
20260901142006 65 328 5.2 9.6 0.00 0.22 0.22 94 1017.3
20260901141530 65 24 5.2 9.6 0.00 0.22 0.22 94 1017.3
20260901141010 65 26 5.2 9.6 0.00 0.22 0.22 94 1017.6
20260901140520 65 40 4.3 9.6 0.00 0.22 0.22 94 1017.7
20260901140029 65 43 5.2 7.8 0.00 0.22 0.22 94 1017.8
20260901135511 65 36 3.5 7.8 0.00 0.22 0.22 95 1017.8
20260901135015 64 19 4.3 7.8 0.00 0.22 0.22 94 1017.9
20260901134529 65 33 3.5 5.2 0.00 0.22 0.22 95 1017.9
20260901134014 64 337 3.5 6.1 0.00 0.22 0.22 94 1017.8
20260901133516 64 61 2.6 6.1 0.00 0.22 0.22 94 1017.8
20260901133032 64 298 1.7 6.1 0.00 0.22 0.22 94 1017.9
20260901132515 64 9 0.9 7.0 0.00 0.22 0.22 94 1017.9
20260901132022 64 24 2.6 7.0 0.00 0.22 0.22 94 1018.0
20260901131627 64 19 2.6 7.0 0.00 0.22 0.22 94 1018.0
20260901131009 64 26 3.5 7.0 0.00 0.22 0.22 94 1017.9
20260901130511 64 46 4.3 7.0 0.01 0.22 0.22 94 1018.0
20260901130023 64 327 3.5 7.8 0.01 0.22 0.22 94 1018.0
20260901125514 64 13 3.5 7.8 0.01 0.22 0.22 94 1018.0
20260901125012 64 36 3.5 7.0 0.01 0.22 0.22 94 1017.9
20260901124527 64 39 3.5 7.0 0.02 0.22 0.22 94 1018.1
20260901124014 64 47 2.6 8.7 0.02 0.22 0.22 94 1018.3
20260901123512 64 41 3.5 8.7 0.03 0.22 0.22 94 1018.3
20260901123031 64 23 4.3 8.7 0.04 0.22 0.22 94 1018.2
20260901122514 64 11 4.3 8.7 0.05 0.22 0.22 94 1018.2
20260901122015 64 26 3.5 10.4 0.07 0.22 0.22 94 1018.2
20260901121533 64 342 5.2 10.4 0.09 0.22 0.22 94 1018.1
20260901121016 63 15 4.3 10.4 0.10 0.22 0.22 94 1018.1
20260901120518 64 46 7.0 10.4 0.11 0.21 0.21 94 1018.1
20260901120021 64 25 4.3 7.0 0.13 0.21 0.21 94 1018.1
20260901115516 64 9 2.6 6.1 0.14 0.21 0.21 94 1018.2
20260901115011 64 28 1.7 6.1 0.15 0.21 0.21 94 1018.3
20260901114530 64 9 2.6 7.0 0.16 0.20 0.20 94 1018.2
20260901114014 64 28 2.6 9.6 0.17 0.20 0.20 94 1018.3
20260901113503 64 347 2.6 9.6 0.17 0.19 0.19 93 1018.4
20260901113005 64 319 2.6 8.7 0.17 0.18 0.18 93 1018.4
20260901112502 64 341 3.5 10.4 0.16 0.17 0.17 93 1018.4
20260901112004 65 19 4.3 10.4 0.14 0.15 0.15 93 1018.3
20260901111516 65 19 5.2 10.4 0.13 0.13 0.13 93 1018.0
20260901111005 66 337 6.1 10.4 0.12 0.12 0.12 94 1018.1
20260901110512 66 45 2.6 6.1 0.10 0.10 0.10 94 1018.1
20260901110014 66 36 2.6 4.3 0.08 0.08 0.08 94 1018.0
20260901105516 66 39 2.6 4.3 0.07 0.07 0.07 93 1017.9
20260901105011 66 55 1.7 3.5 0.06 0.06 0.06 93 1017.9
20260901104522 66 41 0.9 3.5 0.04 0.04 0.04 93 1017.9
20260901104012 66 19 1.7 2.6 0.03 0.03 0.03 93 1017.8
20260901103518 66 22 0.9 2.6 0.02 0.02 0.02 93 1017.7
20260901103028 66 17 1.7 2.6 0.01 0.01 0.01 93 1017.5
20260901102516 66 67 0.9 2.6 0.01 0.01 0.01 92 1017.5
20260901102016 66 61 0.0 2.6 0.01 0.01 0.01 92 1017.5
20260901101516 66 178 0.0 2.6 0.00 0.00 0.00 92 1017.4
20260901101006 67 243 0.9 2.6 0.00 0.00 0.00 92 1017.4
20260901100509 67 238 1.7 2.6 0.00 0.00 0.00 92 1017.4
20260901100015 66 221 0.0 1.7 0.00 0.00 0.00 91 1017.3
20260901095505 66 265 0.0 2.6 0.00 0.00 0.00 91 1017.3
20260901095018 67 51 0.9 2.6 0.00 0.00 0.00 91 1017.3
20260901094533 67 41 1.7 2.6 0.00 0.00 0.00 91 1017.3
20260901094012 67 46 0.9 2.6 0.00 0.00 0.00 91 1017.3
20260901093023 67 221 0.9 3.5 0.00 0.00 0.00 90 1017.3
20260901092510 67 221 1.7 2.6 0.00 0.00 0.00 90 1017.3
20260901092014 67 200 1.7 2.6 0.00 0.00 0.00 90 1017.3
20260901091547 67 205 0.9 3.5 0.00 0.00 0.00 90 1017.5
20260901091015 67 265 0.9 3.5 0.00 0.00 0.00 90 1017.5
20260901090517 67 217 1.7 3.5 0.00 0.00 0.00 90 1017.5
20260901090030 67 221 0.9 2.6 0.00 0.00 0.00 90 1017.5
20260901085503 67 146 0.9 3.5 0.00 0.00 0.00 90 1017.5
20260901085007 67 126 0.9 3.5 0.00 0.00 0.00 90 1017.5
20260901084530 67 190 0.9 2.6 0.00 0.00 0.00 90 1017.6
20260901084008 67 209 0.9 2.6 0.00 0.00 0.00 90 1017.6
20260901083507 67 215 1.7 3.5 0.00 0.00 0.00 90 1017.5
20260901083027 67 205 1.7 5.2 0.00 0.00 0.00 90 1017.6
20260901082512 67 254 1.7 6.1 0.00 0.00 0.00 90 1017.6
20260901082014 67 195 3.5 6.1 0.00 0.00 0.00 90 1017.5
20260901081526 67 221 3.5 6.1 0.00 0.00 0.00 90 1017.5
20260901081014 67 208 2.6 5.2 0.00 0.00 0.00 90 1017.4
20260901080514 67 217 3.5 5.2 0.00 0.00 0.00 90 1017.4
20260901080108 67 221 1.7 4.3 0.00 0.00 0.00 91 1017.3
20260901075516 67 208 1.7 5.2 0.00 0.00 0.00 91 1017.3
20260901075018 67 243 1.7 5.2 0.00 0.00 0.00 91 1017.2
20260901074534 67 225 1.7 3.5 0.00 0.00 0.00 91 1017.1
20260901074007 67 232 0.9 3.5 0.00 0.00 0.00 91 1017.2
20260901073507 66 178 1.7 3.5 0.00 0.00 0.00 91 1017.3
20260901073021 66 221 1.7 4.3 0.00 0.00 0.00 91 1017.3
20260901072510 66 221 1.7 4.3 0.00 0.00 0.00 91 1017.3
20260901072011 66 219 2.6 4.3 0.00 0.00 0.00 91 1017.5
20260901071526 66 221 1.7 3.5 0.00 0.00 0.00 91 1017.5
20260901071021 67 208 1.7 2.6 0.00 0.00 0.00 92 1017.6
20260901070511 66 238 0.0 1.7 0.00 0.00 0.00 91 1017.8